User: anonymous   Login
Location: Unspecified
(0.0000°N, 0.0000°E)
Time: 07:23:56
(UTC+00:00)
Language:

USA 135 - Orbit

View from above orbital plane
View from above orbital plane
View from above satellite
View from above satellite

Ground track
Ground track

The orbit data is extracted from the following two-line orbital elements,

1 25019U 97065A   19082.59734337 -.00000078  00000-0  00000+0 0  9990
2 25019   9.6916  39.1249 0008767 289.6867 315.0605  1.00274316  5102
Epoch (UTC): 23 March 2019 14:20:10
Eccentricity: 0.0008767
inclination: 9.6916°
perigee height: 35748 km
apogee height: 35822 km
right ascension of ascending node: 39.1249°
argument of perigee: 289.6867°
revolutions per day: 1.00274316
mean anomaly at epoch: 315.0605°
orbit number at epoch: 510

The dashed part of the orbit path shows where the satellite is in the earth's shadow,  

DLR